Pink Ribbon: National Breast Cancer Awareness Month map of TBJ home
TBJ - Airport
Location
City:  Tabarka, Tunisia
Name:An Draham International Airport
Old (Alt.):7 Novembre International Airport
ICAO:DTKA
IATA:TBJ

Details
Type:Airport (Aerodrome, Airfield)
Use:Public/Civil, International (customs port of entry)
Latitude:3658'48"N (36.980000)
Longitude:852'37"E (8.876944)
Elevation:230 ft (70 m)
Variation:2.06E (WMM2015 magnetic declination)
0.10 annual change
Runways:1
Longest:9416 × 148 ft (2870 × 45 m), paved

Time
Time Zone:UTC+1 (DST+2)

Weather
METAR:DTKA 012100Z VRB02KT 9999 SCT020 SCT030 19/18 Q1015 NOSIG RETS

Related Locations
Nearby:
Farthest:CHT: 11884 mi / 19126 km
Waitangi [Tuuta], Chatham Islands, NZ

Find:

   beyond  
but within

Other Information
Maps:
NOTAMs:
Links:
Sources:

  
flag of Tunisia   

Sectional Chart

Flight Planning
at skyvector.com

Satellite Image

Google Maps Satellite view

 

Copyright © 2004-2016 Karl L. Swartz. All rights reserved.
The Great Circle Mapper name and logo are trademarks of the Great Circle Mapper.
All other trademarks mentioned herein belong to their respective owners.
Please see credits for attibutions and further copyright information.

  Follow gcmap on Facebook Follow gcmap on Twitter Follow gcmap on Google+ GCmap on LinkedIn

hCard Microformat

Geo Microformat